CAPELLA-2 (46269 NORAD) Tracking and Keplerian Element Data

This shows tracking and keplerian element data for the satellite.

Feedback or suggestion? Click here.




ElementValue
Catalog46269
NameCAPELLA-2
Epoch Orbit374
Epoch Day268.90738729
Epoch Year2020
RAAN199.8331
Inclination45.1017
Eccentricity0.0009771
Argument of Perigee43.5443
Mean Anonmoly316.6205
Mean Motion15.09315089
Decay Rate1.725E-05
L11 46269U 20060B 20268.90738729 .00001725 00000-0 12179-3 0 9996
L22 46269 45.1017 199.8331 0009771 43.5443 316.6205 15.09315089 3746

Live tracking and technical data element details for CAPELLA-2 (NORAD 46269). CAPELLA-2 can be tracked NOW for your location showing map with azimuth and elevation plus other details from your city location.

Track the satellite on the map from your city or location and see movement details for azimuth, elevation, latitude, longitude, range, height, and movement on the map or in text.







IsCatalogInMostPopularTable: catalog: 46269, numindb: 1
Update: records affected: 1



GetName: 46269 CAPELLA-2

Hit Count: updated at: Sat, 26 Sep 2020 15:36:48 GMT